Regional Weather Roundup
Issued by NWS

Home | Current Version | Previous Version | Text Only | Print | Product List | Glossary Off
Versions: 1 2 3 4 5 6 7 8 9 10 11 12 13 14 15 16 17 18 19 20 21 22 23 24 25 26 27 28 29 30 31 32 33 34 35 36 37 38 39 40 41 42 43 44 45 46 47 48 49 50

249
ASUS44 KLIX 190701
RWRLA
LOUISIANA WEATHER ROUNDUP
NATIONAL WEATHER SERVICE NEW ORLEANS LA
200 AM CDT FRI SEP 19 2014

NOTE: "FAIR" INDICATES FEW OR NO CLOUDS BELOW 12,000 FEET WITH NO
      SIGNIFICANT WEATHER AND/OR OBSTRUCTIONS TO VISIBILITY.
      SKY/WX - SKY CONDITION AND SIGNIFICANT WEATHER.
      TMP - AIR TEMPERATURE.    DP   - DEWPOINT TEMPERATURE.
      RH  - RELATIVE HUMIDITY.  PRES - PRESSURE.
      HX  - HEAT INDEX.         WCI  - WIND CHILL INDEX.

*  THESE STATIONS ARE NOT NWS OR FAA STATIONS AND ARE NOT UNDER
   NWS QUALITY CONTROL.

LAZ040-048-061>063-065-066-069-190800-
SOUTHEAST LOUISIANA

CITY           SKY/WX    TMP DP  RH WIND       PRES   REMARKS
N.O. AUDUBON     N/A     74  70  88 MISG        N/A
N.O. INTL ARPT LGT RAIN  75  68  78 E15       29.92S
N.O. LAKEFRONT CLOUDY    74  71  91 E10       29.93F
N.O. DOWNTOWN* CLOUDY    73  66  78 E6        29.94F
SLIDELL        CLOUDY    73  70  90 CALM      29.94S
BATON ROUGE    CLOUDY    73  71  93 CALM      29.92F
BOOTHVILLE     LGT RAIN  74  70  87 CALM      29.93S
BELLE CHASSE   HVY RAIN  74  69  85 E13       29.92F
BOGALUSA*        N/A     73  69  87 CALM      29.95F
GALLIANO*      NOT AVBL
NEW ROADS*     CLOUDY    72  71  96 MISG      29.93F
GONZALES*      CLOUDY    73  73 100 CALM      29.91F
HAMMOND*       NOT AVBL
HOUMA*         DRIZZLE   75  71  87 N3        29.91S
PORT FOURCHON* CLOUDY    77  73  88 CALM      29.93F

$$

LAZ041-044-053-054-190800-
SOUTHWEST LOUISIANA

CITY           SKY/WX    TMP DP  RH WIND       PRES   REMARKS
LAKE CHARLES   CLOUDY    76  74  93 NE5       29.90F FOG
LAFAYETTE      CLOUDY    73  72  96 E5        29.92S
PATTERSON      CLOUDY    73  72  94 NE6       29.94S
SALT POINT       N/A     77  74  90 CALM      29.90F
NEW IBERIA     LGT RAIN  73  71  93 NE9       29.92S
CHENAULT AIRPK NOT AVBL

$$

LAZ027-028-190800-
CENTRAL LOUISIANA

CITY           SKY/WX    TMP DP  RH WIND       PRES   REMARKS
FORT POLK      CLOUDY    73  71  93 NE3       29.92F
ALEXANDRIA INT MOCLDY    75  73  93 E7        29.92R
ALEXANDRIA     MOCLDY    74  70  87 CALM      29.94S

$$

LAZ001-002-190800-
NORTHWEST LOUISIANA

CITY           SKY/WX    TMP DP  RH WIND       PRES   REMARKS
SHREVEPORT     MOCLDY    73  69  87 CALM      29.93S
BARKSDALE AFB  MOCLDY    73  71  95 NE2       29.94S
DTN SHREVEPORT CLOUDY    73  70  90 CALM      29.94R

$$

LAZ014-016-190800-
NORTHEAST LOUISIANA

CITY           SKY/WX    TMP DP  RH WIND       PRES   REMARKS
MONROE         MOCLDY    72  67  84 CALM      29.95F
TALLULAH       MOCLDY    71  66  84 CALM      29.95F

$$




USA.gov is the U.S. government's official web portal to all federal, state and local government web resources and services.